| time (UTC) | temp F | wind direction | speed MPH | gust MPH | rain 1hr in | rain 24hr in | rain mn in | humidity % | barometer mb |
| 20260507044600 | 46 | 241 | 2.0 | 7.0 | 0.00 | 0.11 | 0.00 | 70 | 1014.6 |
| 20260507043057 | 46 | 227 | 2.0 | 5.0 | 0.00 | 0.11 | 0.00 | 71 | 1014.5 |
| 20260507041601 | 47 | 0 | 1.0 | 4.0 | 0.00 | 0.11 | 0.00 | 70 | 1014.5 |
| 20260507040106 | 47 | 225 | 1.0 | 3.0 | 0.00 | 0.11 | 0.00 | 69 | 1014.5 |
| 20260507034559 | 48 | 0 | 1.0 | 5.0 | 0.00 | 0.13 | 0.11 | 69 | 1014.5 |
| 20260507033100 | 48 | 225 | 1.0 | 3.0 | 0.00 | 0.13 | 0.11 | 68 | 1014.4 |
| 20260507031600 | 49 | 225 | 0.0 | 3.0 | 0.00 | 0.13 | 0.11 | 67 | 1014.5 |
| 20260507030059 | 49 | 225 | 1.0 | 3.0 | 0.00 | 0.13 | 0.11 | 67 | 1014.4 |
| 20260507024558 | 49 | 0 | 0.0 | 2.0 | 0.00 | 0.16 | 0.11 | 67 | 1014.3 |
| 20260507023057 | 50 | 225 | 0.0 | 3.0 | 0.00 | 0.16 | 0.11 | 66 | 1014.4 |
| 20260507021611 | 50 | 0 | 0.0 | 1.0 | 0.00 | 0.16 | 0.11 | 65 | 1014.3 |
| 20260507020059 | 50 | 0 | 0.0 | 2.0 | 0.00 | 0.16 | 0.11 | 64 | 1014.3 |
| 20260507014600 | 51 | 0 | 0.0 | 1.0 | 0.00 | 0.20 | 0.11 | 64 | 1014.3 |
| 20260507013057 | 51 | 0 | 0.0 | 2.0 | 0.00 | 0.20 | 0.11 | 63 | 1014.0 |
| 20260507011600 | 52 | 0 | 0.0 | 2.0 | 0.00 | 0.20 | 0.11 | 59 | 1013.9 |
| 20260507004600 | 53 | 0 | 0.0 | 3.0 | 0.00 | 0.24 | 0.11 | 58 | 1013.5 |
| 20260507003100 | 53 | 225 | 0.0 | 3.0 | 0.00 | 0.24 | 0.11 | 56 | 1013.3 |
| 20260507001606 | 54 | 238 | 1.0 | 4.0 | 0.00 | 0.24 | 0.11 | 57 | 1013.3 |
| 20260507000059 | 54 | 211 | 2.0 | 6.0 | 0.00 | 0.24 | 0.11 | 55 | 1013.3 |
| 20260506234624 | 54 | 281 | 2.0 | 6.0 | 0.00 | 0.29 | 0.11 | 55 | 1013.3 |
| 20260506233100 | 54 | 225 | 2.0 | 9.0 | 0.00 | 0.29 | 0.11 | 53 | 1013.3 |
| 20260506231557 | 55 | 263 | 0.0 | 4.0 | 0.00 | 0.29 | 0.11 | 52 | 1013.4 |
| 20260506230100 | 55 | 221 | 3.0 | 7.0 | 0.00 | 0.29 | 0.11 | 50 | 1013.4 |
| 20260506224600 | 56 | 248 | 3.0 | 7.0 | 0.00 | 0.33 | 0.11 | 48 | 1013.4 |
| 20260506223101 | 56 | 261 | 5.0 | 9.0 | 0.00 | 0.33 | 0.11 | 50 | 1013.6 |
| 20260506221600 | 55 | 246 | 3.0 | 12.0 | 0.00 | 0.33 | 0.11 | 49 | 1013.4 |
| 20260506214601 | 55 | 280 | 2.0 | 7.0 | 0.00 | 0.35 | 0.11 | 49 | 1013.3 |
| 20260506213059 | 55 | 269 | 3.0 | 9.0 | 0.00 | 0.35 | 0.11 | 48 | 1013.3 |
| 20260506211601 | 56 | 242 | 5.0 | 12.0 | 0.00 | 0.35 | 0.11 | 49 | 1013.4 |
| 20260506210059 | 55 | 198 | 5.0 | 13.0 | 0.00 | 0.35 | 0.11 | 50 | 1013.4 |
| 20260506204603 | 55 | 220 | 6.0 | 12.0 | 0.00 | 0.37 | 0.11 | 50 | 1013.5 |
| 20260506203058 | 54 | 208 | 5.0 | 12.0 | 0.00 | 0.37 | 0.11 | 46 | 1013.4 |
| 20260506201601 | 54 | 190 | 3.0 | 10.0 | 0.00 | 0.37 | 0.11 | 50 | 1013.4 |
| 20260506200111 | 54 | 281 | 4.0 | 9.0 | 0.00 | 0.37 | 0.11 | 50 | 1013.6 |
| 20260506194622 | 54 | 254 | 3.0 | 8.0 | 0.00 | 0.38 | 0.11 | 51 | 1013.7 |
| 20260506193100 | 54 | 258 | 4.0 | 11.0 | 0.00 | 0.38 | 0.11 | 49 | 1013.7 |
| 20260506191600 | 54 | 290 | 5.0 | 11.0 | 0.00 | 0.38 | 0.11 | 49 | 1013.7 |
| 20260506190104 | 54 | 290 | 3.0 | 8.0 | 0.00 | 0.38 | 0.11 | 49 | 1013.6 |
| 20260506184611 | 54 | 261 | 2.0 | 8.0 | 0.00 | 0.39 | 0.11 | 49 | 1013.7 |
| 20260506183107 | 54 | 270 | 2.0 | 7.0 | 0.00 | 0.39 | 0.11 | 50 | 1013.6 |
| 20260506181609 | 54 | 255 | 3.0 | 7.0 | 0.00 | 0.39 | 0.11 | 49 | 1013.7 |
| 20260506180106 | 55 | 228 | 2.0 | 8.0 | 0.00 | 0.39 | 0.11 | 47 | 1013.7 |
| 20260506174604 | 55 | 207 | 4.0 | 9.0 | 0.00 | 0.39 | 0.11 | 47 | 1013.6 |
| 20260506173115 | 55 | 292 | 3.0 | 8.0 | 0.00 | 0.39 | 0.11 | 48 | 1013.6 |
| 20260506171602 | 55 | 290 | 3.0 | 8.0 | 0.00 | 0.39 | 0.11 | 49 | 1013.4 |
| 20260506170100 | 55 | 0 | 3.0 | 7.0 | 0.00 | 0.39 | 0.11 | 48 | 1013.6 |
| 20260506164558 | 55 | 277 | 3.0 | 9.0 | 0.00 | 0.39 | 0.11 | 49 | 1013.6 |
| 20260506163107 | 55 | 257 | 3.0 | 9.0 | 0.00 | 0.39 | 0.11 | 47 | 1013.6 |
| 20260506161606 | 56 | 300 | 3.0 | 10.0 | 0.01 | 0.39 | 0.11 | 50 | 1013.7 |
| 20260506160100 | 56 | 208 | 4.0 | 8.0 | 0.01 | 0.39 | 0.11 | 50 | 1013.7 |
| 20260506154558 | 55 | 11 | 4.0 | 10.0 | 0.01 | 0.39 | 0.11 | 52 | 1013.7 |
| 20260506153100 | 54 | 290 | 2.0 | 9.0 | 0.01 | 0.39 | 0.11 | 55 | 1013.8 |
| 20260506151610 | 54 | 322 | 3.0 | 8.0 | 0.00 | 0.38 | 0.10 | 53 | 1013.6 |
| 20260506150106 | 53 | 338 | 3.0 | 9.0 | 0.00 | 0.38 | 0.10 | 54 | 1013.3 |
| 20260506144617 | 52 | 5 | 3.0 | 6.0 | 0.00 | 0.38 | 0.10 | 58 | 1013.5 |
| 20260506143104 | 52 | 0 | 1.0 | 5.0 | 0.01 | 0.38 | 0.10 | 62 | 1013.3 |
| 20260506141559 | 51 | 0 | 0.0 | 10.0 | 0.01 | 0.38 | 0.10 | 62 | 1013.1 |
| 20260506140108 | 50 | 313 | 3.0 | 9.0 | 0.01 | 0.38 | 0.10 | 63 | 1012.9 |
| 20260506134600 | 50 | 290 | 4.0 | 8.0 | 0.01 | 0.38 | 0.10 | 64 | 1012.9 |
| 20260506133100 | 50 | 335 | 4.0 | 11.0 | 0.00 | 0.37 | 0.09 | 66 | 1012.9 |
| 20260506131601 | 49 | 323 | 4.0 | 10.0 | 0.00 | 0.37 | 0.09 | 70 | 1012.8 |
| 20260506130133 | 48 | 5 | 3.0 | 8.0 | 0.00 | 0.37 | 0.09 | 78 | 1012.4 |
| 20260506124559 | 46 | 352 | 2.0 | 8.0 | 0.01 | 0.38 | 0.09 | 89 | 1012.4 |
| 20260506123058 | 45 | 336 | 2.0 | 6.0 | 0.01 | 0.38 | 0.09 | 96 | 1012.2 |
| 20260506121604 | 45 | 278 | 2.0 | 6.0 | 0.01 | 0.38 | 0.09 | 97 | 1012.0 |
| 20260506114559 | 44 | 0 | 0.0 | 3.0 | 0.00 | 0.37 | 0.08 | 97 | 1011.5 |
| 20260506113107 | 44 | 0 | 0.0 | 2.0 | 0.01 | 0.37 | 0.08 | 97 | 1011.5 |
| 20260506111600 | 43 | 0 | 0.0 | 1.0 | 0.01 | 0.37 | 0.08 | 97 | 1011.0 |
| 20260506110105 | 43 | 0 | 0.0 | 1.0 | 0.01 | 0.37 | 0.08 | 97 | 1010.9 |
| 20260506104616 | 43 | 0 | 0.0 | 1.0 | 0.01 | 0.38 | 0.08 | 97 | 1010.7 |
| 20260506103100 | 43 | 0 | 0.0 | 3.0 | 0.00 | 0.37 | 0.07 | 97 | 1010.5 |
| 20260506101606 | 43 | 0 | 0.0 | 2.0 | 0.00 | 0.37 | 0.07 | 97 | 1010.4 |
| 20260506100059 | 43 | 0 | 0.0 | 2.0 | 0.01 | 0.37 | 0.07 | 97 | 1010.1 |
| 20260506094605 | 43 | 163 | 0.0 | 2.0 | 0.01 | 0.40 | 0.07 | 97 | 1010.1 |
| 20260506093105 | 43 | 0 | 0.0 | 2.0 | 0.01 | 0.40 | 0.07 | 97 | 1010.1 |
| 20260506091601 | 43 | 0 | 0.0 | 2.0 | 0.01 | 0.40 | 0.07 | 97 | 1010.3 |
| 20260506084608 | 43 | 0 | 0.0 | 2.0 | 0.01 | 0.41 | 0.06 | 96 | 1010.0 |
| 20260506083059 | 43 | 163 | 0.0 | 2.0 | 0.01 | 0.41 | 0.06 | 96 | 1010.0 |
| 20260506081602 | 43 | 0 | 0.0 | 2.0 | 0.01 | 0.41 | 0.06 | 96 | 1009.9 |
| 20260506073106 | 42 | 0 | 0.0 | 4.0 | 0.01 | 0.43 | 0.05 | 96 | 1009.4 |
| 20260506071612 | 43 | 0 | 1.0 | 4.0 | 0.02 | 0.43 | 0.05 | 96 | 1009.5 |
| 20260506070104 | 43 | 0 | 1.0 | 4.0 | 0.01 | 0.42 | 0.04 | 96 | 1009.5 |
| 20260506061600 | 44 | 200 | 1.0 | 4.0 | 0.01 | 0.44 | 0.03 | 96 | 1010.3 |